DW4464 Weather Reports


Display with metric or nautical units.
time (UTC)temp
F
wind
direction
speed
MPH
gust
MPH
rain 1hr
in
rain 24hr
in
rain mn
in
humidity
%
barometer
mb
20190819110120 55 77 0.0 0.0 0.00 0.00 0.00 100 1095.8
20190819104543 55 78 0.0 1.0 0.00 0.00 0.00 100 1095.7
20190819103107 55 78 0.0 0.0 0.00 0.00 0.00 100 1095.8
20190819101554 55 78 0.0 0.0 0.00 0.00 0.00 100 1095.7
20190819100027 56 78 0.0 0.0 0.00 0.00 0.00 100 1095.7
20190819094517 56 78 0.0 0.0 0.00 0.00 0.00 100 1095.6
20190819093014 57 78 0.0 1.0 0.00 0.00 0.00 100 1095.5
20190819091508 57 77 0.0 1.0 0.00 0.00 0.00 100 1095.4
20190819084713 58 77 0.0 1.0 0.00 0.00 0.00 100 1095.5
20190819083257 58 77 0.0 1.0 0.00 0.00 0.00 100 1095.4
20190819081638 58 77 0.0 0.0 0.00 0.00 0.00 100 1095.4
20190819080116 59 77 0.0 1.0 0.00 0.00 0.00 2 1095.2
20190819074556 59 78 0.0 1.0 0.00 0.00 0.00 16 1095.1
20190819073049 59 78 0.0 1.0 0.00 0.00 0.00 15 1094.9
20190819071649 60 78 0.0 1.0 0.00 0.00 0.00 26 1094.7
20190819070104 60 77 0.0 0.0 0.00 0.00 0.00 34 1094.5
20190819064600 61 77 0.0 0.0 0.00 0.00 0.00 32 1094.5
20190819063029 62 78 0.0 1.0 0.00 0.00 0.00 42 1094.2
20190819061516 63 181 0.0 0.0 0.00 0.00 0.00 50 1094.0
20190819060056 64 181 0.0 1.0 0.00 0.00 0.00 56 1093.9
20190819054524 64 222 0.0 1.0 0.00 0.00 0.00 59 1093.9
20190819053003 65 217 0.0 0.0 0.00 0.00 0.00 61 1093.7
20190819051636 66 214 0.0 3.0 0.00 0.00 0.00 62 1093.5
20190819050141 67 204 1.0 4.0 0.00 0.00 0.00 62 1093.4
20190819044705 68 228 0.0 2.0 0.00 0.00 0.00 62 1093.2
20190819043134 69 277 0.0 4.0 0.00 0.00 0.00 61 1092.9
20190819041623 70 219 0.0 3.0 0.00 0.00 0.00 59 1092.6
20190819040119 70 203 2.0 6.0 0.00 0.00 0.00 57 1092.3
20190819034604 71 248 1.0 3.0 0.00 0.00 0.00 58 1092.1
20190819033054 72 241 1.0 6.0 0.00 0.00 0.00 57 1091.8
20190819031544 73 229 2.0 5.0 0.00 0.00 0.00 56 1091.6
20190819030035 75 153 2.0 6.0 0.00 0.00 0.00 54 1091.5
20190819024526 76 229 1.0 6.0 0.00 0.00 0.00 51 1091.4
20190819023105 79 224 1.0 4.0 0.00 0.00 0.00 43 1091.3
20190819021519 81 201 1.0 5.0 0.00 0.00 0.00 39 1091.3
20190819020007 81 201 2.0 8.0 0.00 0.00 0.00 40 1091.2
20190819014651 82 224 3.0 5.0 0.00 0.00 0.00 38 1091.1
20190819013120 83 222 3.0 6.0 0.00 0.00 0.00 37 1091.1
20190819011619 83 219 3.0 7.0 0.00 0.00 0.00 37 1091.2
20190819010118 84 203 3.0 7.0 0.00 0.00 0.00 36 1091.4
20190819004639 84 211 3.0 7.0 0.00 0.00 0.00 35 1091.4
20190819003314 84 203 2.0 9.0 0.00 0.00 0.00 35 1091.3
20190819001627 84 132 1.0 5.0 0.00 0.00 0.00 36 1091.3
20190819000057 84 232 3.0 8.0 0.00 0.00 0.00 35 1091.4
20190818234554 84 252 4.0 8.0 0.00 0.00 0.00 35 1091.4
20190818233029 84 250 4.0 7.0 0.00 0.00 0.00 36 1091.5
20190818231531 84 79 1.0 6.0 0.00 0.00 0.00 35 1091.5
20190818230019 84 253 1.0 10.0 0.00 0.00 0.00 36 1091.5
20190818224539 84 194 5.0 9.0 0.00 0.00 0.00 36 1091.7
20190818223011 85 232 2.0 6.0 0.00 0.00 0.00 35 1091.6
20190818221857 83 243 4.0 9.0 0.00 0.00 0.00 36 1091.7
20190818220133 84 212 3.0 10.0 0.00 0.00 0.00 35 1091.8
20190818214734 83 58 4.0 11.0 0.00 0.00 0.00 37 1092.1
20190818213103 84 249 2.0 10.0 0.00 0.00 0.00 37 1092.1
20190818211614 83 120 1.0 8.0 0.00 0.00 0.00 38 1092.3
20190818210053 82 131 3.0 13.0 0.00 0.00 0.00 37 1092.4
20190818204546 81 239 4.0 11.0 0.00 0.00 0.00 37 1092.5
20190818203100 82 200 1.0 11.0 0.00 0.00 0.00 38 1092.5
20190818201601 81 269 2.0 8.0 0.00 0.00 0.00 38 1092.6
20190818200024 82 146 1.0 8.0 0.00 0.00 0.00 40 1092.6
20190818194542 81 239 2.0 8.0 0.00 0.00 0.00 40 1092.7
20190818193038 81 174 1.0 8.0 0.00 0.00 0.00 41 1092.8
20190818191530 80 281 1.0 7.0 0.00 0.00 0.00 41 1092.8
20190818190003 80 44 0.0 6.0 0.00 0.00 0.00 44 1092.7
20190818184706 79 84 2.0 7.0 0.00 0.00 0.00 46 1092.7
20190818183150 77 219 3.0 7.0 0.00 0.00 0.00 48 1092.6
20190818181632 76 226 2.0 5.0 0.00 0.00 0.00 51 1092.6
20190818180126 75 311 1.0 6.0 0.00 0.00 0.00 54 1092.7
20190818174553 73 224 3.0 5.0 0.00 0.00 0.00 56 1092.6
20190818173201 73 128 0.0 6.0 0.00 0.00 0.00 57 1092.5
20190818171558 70 231 4.0 6.0 0.00 0.00 0.00 58 1092.5
20190818170135 69 262 3.0 6.0 0.00 0.00 0.00 59 1092.4
20190818164532 68 221 2.0 6.0 0.00 0.00 0.00 59 1092.3
20190818163057 68 220 0.0 4.0 0.00 0.00 0.00 60 1092.1
20190818161521 68 238 0.0 3.0 0.00 0.00 0.00 61 1092.1
20190818160033 66 246 0.0 3.0 0.00 0.00 0.00 61 1092.0
20190818154506 67 128 0.0 1.0 0.00 0.00 0.00 60 1092.1
20190818153148 65 108 0.0 2.0 0.00 0.00 0.00 59 1092.0
20190818151715 64 234 0.0 1.0 0.00 0.00 0.00 59 1091.9
20190818150102 63 240 0.0 2.0 0.00 0.00 0.00 56 1092.0
20190818144616 63 236 0.0 1.0 0.00 0.00 0.00 51 1091.9
20190818143134 61 222 0.0 1.0 0.00 0.00 0.00 37 1091.8
20190818141629 58 223 0.0 3.0 0.00 0.00 0.00 24 1091.8
20190818140157 57 218 0.0 0.0 0.00 0.00 0.00 22 1091.6
20190818134607 56 218 0.0 0.0 0.00 0.00 0.00 100 1091.6
20190818133039 54 218 0.0 0.0 0.00 0.00 0.00 100 1091.3
20190818131604 55 218 0.0 0.0 0.00 0.00 0.00 100 1091.1
20190818130040 55 218 0.0 0.0 0.00 0.00 0.00 100 1090.9
20190818124513 55 218 0.0 0.0 0.00 0.00 0.00 100 1090.6
20190818123016 55 217 0.0 0.0 0.00 0.00 0.00 100 1090.4
20190818121514 55 218 0.0 0.0 0.00 0.00 0.00 3 1090.2
20190818120218 55 218 0.0 0.0 0.00 0.00 0.00 11 1090.1
20190818114701 56 218 0.0 0.0 0.00 0.00 0.00 24 1090.0
20190818113131 56 218 0.0 0.0 0.00 0.00 0.00 31 1089.8
20190818111647 56 218 0.0 0.0 0.00 0.00 0.00 34 1089.7